Weather History for Alabaster, AL

Change the Weather History Date:

Friday, May 31, 2013

  Actual Average Record
Temperature  
Mean Temperature 80 °F 74 °F  
Max Temperature 87 °F 84 °F 95 °F (2011)
Min Temperature 72 °F 64 °F 43 °F (1966)
Cooling Degree Days 15 9  
Month to date cooling degree days 179 194  
Year to date cooling degree days 252 269  
Growing Degree Days 29 (Base 50)    
Moisture  
Dew Point 66 °F    
Average Humidity 66    
Maximum Humidity 84    
Minimum Humidity 48    
Precipitation  
Precipitation 0.00 in 0.16 in 3.60 in (1979)
Month to date precipitation 3.71 4.48  
Year to date precipitation 29.00 23.93  
Sea Level Pressure  
Sea Level Pressure 30.06 in    
Wind  
Wind Speed 6 mph (SE)    
Max Wind Speed 16 mph    
Max Gust Speed 21 mph    
Visibility 10 miles    
Events      
T = Trace of Precipitation, MM = Missing Value Source: NWS Daily Summary

Daily Weather History Graph

Daily Weather History Graph

Search for Another Location

Airport:

Trip Planner

Search our weather history database for the weather conditions in past years. The results will help you decide how hot, cold, wet, or windy it might be!

Date:

Astronomy

May. 31, 2013 Rise Set
Actual Time 5:39 AM CDT 7:50 PM CDT
Civil Twilight 5:10 AM CDT 8:19 PM CDT
Nautical Twilight 4:36 AM CDT 8:53 PM CDT
Astronomical Twilight 3:59 AM CDT 9:31 PM CDT
Moon 12:39 AM CDT (5/31) 12:37 PM CDT (5/31)
Length of Visible Light 15h 08m
Length of Day
14h 11m
Waning Gibbous, 51% of the Moon is Illuminated
May 31
Waning Gibbous
May 31
Last Quarter
Jun 8
New
Jun 16
First Quarter
Jun 23
Full

Hourly Weather History & Observations

Time (CDT) Temp. Heat Index Dew Point Humidity Pressure Visibility Wind Dir Wind Speed Gust Speed Precip Events Conditions
12:53 AM 75.0 °F - 66.0 °F 73% 30.08 in 10.0 mi SE 4.6 mph - N/A   Overcast
1:53 AM 75.0 °F - 64.9 °F 71% 30.06 in 10.0 mi SE 4.6 mph - N/A   Mostly Cloudy
2:53 AM 73.0 °F - 64.9 °F 76% 30.04 in 10.0 mi SE 3.5 mph - N/A   Partly Cloudy
3:53 AM 73.0 °F - 64.9 °F 76% 30.05 in 10.0 mi SE 4.6 mph - N/A   Overcast
4:53 AM 73.0 °F - 64.9 °F 76% 30.06 in 10.0 mi ESE 4.6 mph - N/A   Mostly Cloudy
5:53 AM 72.0 °F - 66.0 °F 81% 30.07 in 10.0 mi Variable 3.5 mph - N/A   Partly Cloudy
6:37 AM 73.4 °F - 66.2 °F 78% 30.11 in 10.0 mi SE 4.6 mph - N/A   Mostly Cloudy
6:53 AM 73.0 °F - 66.0 °F 79% 30.10 in 10.0 mi SE 6.9 mph - N/A   Overcast
7:15 AM 73.4 °F - 66.2 °F 78% 30.13 in 10.0 mi SE 6.9 mph - N/A   Scattered Clouds
7:53 AM 75.0 °F - 66.9 °F 76% 30.12 in 10.0 mi SE 6.9 mph - N/A   Clear
8:53 AM 78.1 °F - 68.0 °F 71% 30.12 in 10.0 mi SE 6.9 mph - N/A   Mostly Cloudy
9:45 AM 80.6 °F 83.2 °F 68.0 °F 65% 30.12 in 10.0 mi SSE 9.2 mph - N/A   Scattered Clouds
9:53 AM 80.1 °F 82.3 °F 66.9 °F 64% 30.09 in 10.0 mi South 10.4 mph - N/A   Partly Cloudy
10:21 AM 80.6 °F 82.7 °F 66.2 °F 61% 30.11 in 10.0 mi SSE 12.7 mph - N/A   Mostly Cloudy
10:36 AM 80.6 °F 82.7 °F 66.2 °F 61% 30.11 in 10.0 mi SSE 11.5 mph - N/A   Overcast
10:53 AM 82.9 °F 85.4 °F 66.9 °F 58% 30.09 in 10.0 mi SE 5.8 mph - N/A   Mostly Cloudy
11:53 AM 84.0 °F 86.5 °F 66.9 °F 56% 30.07 in 10.0 mi SSE 10.4 mph 16.1 mph N/A   Mostly Cloudy
12:53 PM 86.0 °F 88.8 °F 66.9 °F 53% 30.07 in 10.0 mi SSE 10.4 mph - N/A   Mostly Cloudy
1:53 PM 84.0 °F 86.3 °F 66.0 °F 55% 30.06 in 10.0 mi SE 11.5 mph 16.1 mph N/A   Overcast
2:53 PM 84.0 °F 86.5 °F 66.9 °F 56% 30.04 in 10.0 mi South 4.6 mph - N/A   Mostly Cloudy
3:53 PM 86.0 °F 87.6 °F 64.9 °F 49% 30.03 in 10.0 mi SSE 10.4 mph 20.7 mph N/A   Overcast
4:53 PM 86.0 °F 88.2 °F 66.0 °F 51% 30.02 in 10.0 mi SSE 10.4 mph 17.3 mph N/A   Overcast
5:53 PM 86.0 °F 87.6 °F 64.9 °F 49% 30.01 in 10.0 mi SSE 11.5 mph - N/A   Scattered Clouds
6:53 PM 84.0 °F 85.8 °F 64.9 °F 53% 30.01 in 10.0 mi SE 10.4 mph - N/A   Partly Cloudy
7:53 PM 81.0 °F 83.0 °F 66.0 °F 60% 30.01 in 10.0 mi SE 3.5 mph - N/A   Clear
8:53 PM 78.1 °F - 66.0 °F 66% 30.01 in 10.0 mi Calm Calm - N/A   Clear
9:53 PM 73.9 °F - 68.0 °F 82% 30.02 in 10.0 mi Calm Calm - N/A   Clear
10:53 PM 75.9 °F - 66.0 °F 71% 29.99 in 10.0 mi SE 3.5 mph - N/A   Clear
11:53 PM 75.0 °F - 66.0 °F 73% 30.01 in 10.0 mi SSE 4.6 mph - N/A   Clear